Вернуться в каталог

IRIDIUM 16

АктивенСвязьPO
NORAD 24841·PAYLOAD·🇺🇸 United States

Запущен Jun 18, 1997 с Baikonur Cosmodrome

Loading…

Ближайшие Пролёты (ближайшие 24 часа)

TLE

СвежийSource: Space-Track

Эпоха: Sep 14, 2026, 07:02 UTC

1 24841U 97030F   26257.29320047  .00000267  00000-0  80003-4 0  9997
2 24841  86.4073  14.3894 0003378  53.9207 306.2304 14.39098481532303

Отслеживайте IRIDIUM 16 в реальном времени с AllMySat

Download on the App Store